FW5214 Weather Reports


time (UTC)temp
F
wind
direction
speed
knots
gust
knots
rain 1hr
in
rain 24hr
in
rain mn
in
humidity
%
barometer
mb
20260507070027 57 360 0.9 2.6 0.03 0.27 0.13 94 1014.8
20260507064517 57 360 0.9 3.5 0.03 0.26 0.13 94 1014.7
20260507063012 57 360 1.7 7.8 0.02 0.25 0.12 93 1014.4
20260507061512 57 360 0.9 4.3 0.02 0.24 0.11 94 1014.4
20260507060013 56 360 0.0 2.6 0.06 0.24 0.10 95 1014.2
20260507054511 56 360 0.9 3.5 0.09 0.23 0.09 94 1014.0
20260507053007 56 360 0.0 4.3 0.09 0.23 0.09 93 1014.0
20260507051504 56 360 0.0 1.7 0.09 0.23 0.09 93 1013.9
20260507050010 57 360 0.9 2.6 0.02 0.16 0.02 91 1014.0
20260507044628 56 360 0.9 2.6 0.00 0.13 0.00 92 1013.4
20260507043058 55 360 0.9 3.5 0.00 0.13 0.00 95 1013.1
20260507041555 55 360 0.0 0.0 0.00 0.13 0.00 95 1012.9
20260507040058 55 360 0.0 0.9 0.00 0.13 0.00 95 1012.8
20260507034556 55 360 0.0 2.6 0.00 0.13 0.00 95 1012.5
20260507033104 55 360 0.0 0.0 0.00 0.13 0.00 95 1012.6
20260507031559 55 360 0.0 0.0 0.00 0.13 0.00 95 1012.6
20260507030106 56 360 0.9 3.5 0.00 0.13 0.00 95 1012.6
20260507024606 56 360 0.0 2.6 0.00 0.13 0.00 95 1012.5
20260507023048 56 360 0.0 0.0 0.00 0.13 0.00 95 1012.3
20260507021554 56 360 0.0 1.7 0.00 0.13 0.00 95 1012.4
20260507020056 55 360 0.0 0.9 0.00 0.13 0.00 95 1012.3
20260507014554 55 360 0.0 0.9 0.00 0.13 0.00 95 1012.3
20260507013045 56 360 0.0 1.7 0.00 0.13 0.00 95 1012.1
20260507011548 56 360 0.0 3.5 0.00 0.13 0.00 95 1012.1
20260507010046 56 360 0.0 0.0 0.00 0.13 0.00 95 1012.1
20260507004542 56 360 0.9 2.6 0.00 0.13 0.00 94 1012.0
20260507003040 57 360 0.0 0.0 0.00 0.13 0.00 95 1012.1
20260507001539 57 360 0.0 2.6 0.00 0.13 0.00 94 1012.0
20260507000037 57 360 0.9 2.6 0.00 0.13 0.00 94 1012.1
20260506234545 58 360 0.0 2.6 0.00 0.13 0.00 94 1012.0
20260506233032 58 360 0.0 3.5 0.00 0.13 0.00 94 1012.1
20260506231533 59 360 0.0 0.0 0.00 0.13 0.00 94 1012.2
20260506230028 59 360 0.0 0.0 0.00 0.13 0.00 95 1012.2
20260506224527 60 360 0.0 0.0 0.00 0.13 0.00 95 1012.1
20260506223026 60 360 0.0 0.0 0.00 0.13 0.00 96 1012.0
20260506221525 60 360 0.0 1.7 0.00 0.13 0.00 96 1012.2
20260506220023 60 360 0.0 0.0 0.00 0.13 0.00 96 1012.2
20260506214523 60 360 0.0 1.7 0.00 0.13 0.13 96 1012.3
20260506213022 60 360 0.0 1.7 0.00 0.13 0.13 95 1012.4
20260506211524 60 360 0.0 3.5 0.00 0.13 0.13 95 1012.4
20260506210026 60 360 1.7 3.5 0.00 0.13 0.13 95 1012.3
20260506204520 61 360 1.7 2.6 0.00 0.13 0.13 94 1012.3
20260506203023 61 360 0.0 0.9 0.00 0.13 0.13 94 1012.3
20260506201520 61 360 0.0 3.5 0.01 0.13 0.13 94 1012.4
20260506200019 61 360 1.7 3.5 0.02 0.13 0.13 94 1012.4
20260506194519 61 360 0.0 0.0 0.06 0.13 0.13 93 1012.3
20260506193018 62 360 0.0 0.0 0.06 0.13 0.13 93 1012.2
20260506191518 62 360 0.0 3.5 0.05 0.13 0.13 92 1012.1
20260506190018 62 360 0.9 3.5 0.09 0.12 0.12 91 1012.3
20260506184516 62 360 2.6 7.0 0.05 0.08 0.08 90 1012.4
20260506183015 63 360 0.0 5.2 0.05 0.08 0.08 91 1012.1
20260506181514 64 360 0.0 0.0 0.05 0.08 0.08 89 1011.0
20260506180014 64 360 0.0 0.0 0.00 0.03 0.03 88 1010.7
20260506174513 64 360 0.0 0.0 0.00 0.03 0.03 87 1010.2
20260506173018 65 360 0.0 0.0 0.00 0.03 0.03 87 1010.2
20260506171514 65 360 0.0 0.0 0.00 0.03 0.03 87 1010.1
20260506170011 65 360 0.0 1.7 0.02 0.03 0.03 86 1010.2
20260506164511 66 360 0.0 1.7 0.03 0.03 0.03 87 1010.0
20260506163014 66 360 0.0 1.7 0.03 0.03 0.03 86 1010.0
20260506161508 67 360 0.0 1.7 0.03 0.03 0.03 83 1009.9
20260506160010 70 360 1.7 3.5 0.02 0.02 0.02 73 1010.1
20260506154507 74 360 1.7 4.3 0.00 0.00 0.00 58 1009.8
20260506153007 76 360 0.0 0.0 0.00 0.00 0.00 55 1009.5
20260506151506 76 360 0.0 0.0 0.00 0.00 0.00 54 1009.5
20260506150005 76 360 0.0 1.7 0.00 0.00 0.00 53 1009.6
20260506144505 77 360 0.9 4.3 0.00 0.00 0.00 53 1009.6
20260506143002 77 360 1.7 7.0 0.00 0.00 0.00 51 1009.8
20260506141501 77 360 1.7 7.0 0.00 0.00 0.00 53 1009.8
20260506140059 77 360 3.5 7.8 0.00 0.00 0.00 52 1010.1
20260506134557 77 360 2.6 5.2 0.00 0.00 0.00 53 1010.3
20260506133057 77 360 1.7 5.2 0.00 0.00 0.00 51 1010.3
20260506131602 77 360 2.6 5.2 0.00 0.00 0.00 52 1010.5
20260506130121 78 360 4.3 7.8 0.00 0.00 0.00 51 1010.6
20260506124558 77 360 5.2 8.7 0.00 0.00 0.00 50 1010.7
20260506123050 77 360 1.7 7.0 0.00 0.00 0.00 51 1010.8
20260506121548 76 360 2.6 8.7 0.00 0.00 0.00 53 1011.1
20260506120047 75 360 2.6 10.4 0.00 0.00 0.00 51 1011.1
20260506114545 76 360 4.3 12.2 0.00 0.00 0.00 50 1011.4
20260506113051 76 360 3.5 11.3 0.00 0.00 0.00 51 1011.5
20260506111542 76 360 4.3 10.4 0.00 0.00 0.00 50 1011.8
20260506110050 76 360 5.2 12.2 0.00 0.00 0.00 51 1012.0
20260506104546 75 360 2.6 11.3 0.00 0.00 0.00 52 1012.1
20260506103044 75 360 2.6 10.4 0.00 0.00 0.00 52 1012.1
20260506101543 75 360 1.7 10.4 0.00 0.00 0.00 53 1012.4
20260506100039 74 360 4.3 9.6 0.00 0.00 0.00 55 1012.5
20260506094526 73 360 0.9 5.2 0.00 0.00 0.00 55 1012.6
20260506093035 73 360 3.5 8.7 0.00 0.00 0.00 56 1012.6
20260506091525 73 360 5.2 9.6 0.00 0.00 0.00 55 1012.8
20260506090022 72 360 0.9 7.8 0.00 0.00 0.00 56 1012.8
20260506084520 72 360 0.9 4.3 0.00 0.00 0.00 55 1013.0
20260506083016 70 360 0.9 7.0 0.00 0.00 0.00 60 1013.0
20260506081512 68 360 1.7 7.8 0.00 0.00 0.00 59 1013.0
20260506073011 66 360 5.2 10.4 0.00 0.00 0.00 61 1013.1
20260506071505 66 360 5.2 11.3 0.00 0.00 0.00 60 1013.0